Location: Ay?beleni
(36.6500°N, 30.3000°E)
Time: 01:52:42
(UTC+00:00)

Cosmos 1703 - Pass Details

Date: 16 October 2021
Orbit: 521 x 539 km, 82.5° (Epoch: 04 December)

Event Time Altitude Azimuth Distance (km) Brightness Sun altitude
Rises 16:28:32 0° 358° (N) 2,690 6.9 -14.3°
Reaches altitude 10° 16:30:44 10° 3° (N) 1,791 5.9 -14.7°
Maximum altitude 16:34:36 55° 81° (E) 646 3.3 -15.5°
Drops below altitude 10° 16:38:24 10° 160° (SSE) 1,767 5.7 -16.3°
Sets 16:40:34 0° 165° (SSE) 2,648 6.6 -16.7°
